Location: Ballingbuur
(53.0000°N, 5.7667°E)
Time: 21:22:35
(UTC+00:00)

MOS 1-B - Pass Details

Date: 29 November 2020
Orbit: 905 x 914 km, 99.4° (Epoch: 25 January)

Event Time Altitude Azimuth Distance (km) Brightness Sun altitude
Rises 05:57:56 0° 16° (NNE) 3,564 7.4 -12.4°
Reaches altitude 10° 06:00:21 10° 17° (NNE) 2,618 6.7 -12.0°
Maximum altitude 06:06:13 87° 106° (ESE) 923 4.4 -11.2°
Drops below altitude 10° 06:12:02 10° 198° (SSW) 2,597 6.8 -10.4°
Sets 06:14:26 0° 198° (SSW) 3,534 7.5 -10.0°
